| time (UTC) | temp F | wind direction | speed MPH | gust MPH | rain 1hr in | rain 24hr in | rain mn in | humidity % | barometer mb |
| 20260507060745 | 55 | 337 | 0.0 | 0.0 | 0.00 | 0.15 | 0.06 | 100 | 1004.5 |
| 20260507055807 | 55 | 339 | 0.0 | 0.0 | 0.00 | 0.15 | 0.06 | 100 | 1004.9 |
| 20260507054829 | 55 | 343 | 0.0 | 0.0 | 0.00 | 0.15 | 0.06 | 100 | 1004.9 |
| 20260507053850 | 55 | 342 | 0.0 | 1.0 | 0.00 | 0.15 | 0.06 | 100 | 1004.7 |
| 20260507052835 | 56 | 344 | 0.0 | 0.0 | 0.05 | 0.15 | 0.06 | 100 | 1004.6 |
| 20260507050634 | 57 | 326 | 2.0 | 5.0 | 0.10 | 0.13 | 0.05 | 100 | 1005.0 |
| 20260507045628 | 59 | 330 | 2.0 | 7.0 | 0.21 | 0.11 | 0.03 | 100 | 1004.4 |
| 20260507044558 | 60 | 329 | 1.0 | 7.0 | 0.00 | 0.08 | 0.00 | 99 | 1004.4 |
| 20260507043541 | 60 | 337 | 1.0 | 7.0 | 0.00 | 0.08 | 0.00 | 97 | 1004.5 |
| 20260507042530 | 61 | 17 | 3.0 | 7.0 | 0.00 | 0.08 | 0.00 | 95 | 1004.1 |
| 20260507041547 | 61 | 336 | 2.0 | 6.0 | 0.00 | 0.08 | 0.00 | 92 | 1004.1 |
| 20260507040541 | 62 | 329 | 1.0 | 9.0 | 0.00 | 0.08 | 0.00 | 91 | 1003.8 |
| 20260507035604 | 62 | 0 | 0.0 | 2.0 | 0.00 | 0.08 | 0.08 | 91 | 1003.6 |
| 20260507034532 | 62 | 352 | 1.0 | 5.0 | 0.00 | 0.08 | 0.08 | 92 | 1003.6 |
| 20260507032341 | 64 | 349 | 0.0 | 4.0 | 0.00 | 0.08 | 0.08 | 99 | 1003.9 |
| 20260507031320 | 64 | 339 | 0.0 | 2.0 | 0.00 | 0.08 | 0.08 | 100 | 1003.4 |
| 20260507030246 | 64 | 347 | 1.0 | 7.0 | 0.00 | 0.08 | 0.08 | 98 | 1003.4 |
| 20260507025217 | 65 | 332 | 2.0 | 5.0 | 0.00 | 0.08 | 0.08 | 97 | 1003.2 |
| 20260507024216 | 65 | 320 | 2.0 | 7.0 | 0.00 | 0.08 | 0.08 | 96 | 1003.0 |
| 20260507023204 | 65 | 344 | 2.0 | 7.0 | 0.00 | 0.08 | 0.08 | 94 | 1003.0 |
| 20260507022158 | 66 | 335 | 1.0 | 5.0 | 0.00 | 0.08 | 0.08 | 95 | 1003.4 |
| 20260507021220 | 66 | 349 | 1.0 | 5.0 | 0.00 | 0.08 | 0.08 | 96 | 1002.9 |
| 20260507020225 | 66 | 347 | 0.0 | 5.0 | 0.00 | 0.08 | 0.08 | 100 | 1002.9 |
| 20260507015217 | 67 | 340 | 1.0 | 3.0 | 0.00 | 0.08 | 0.08 | 100 | 1003.3 |
| 20260507014239 | 67 | 335 | 1.0 | 5.0 | 0.00 | 0.08 | 0.08 | 100 | 1003.3 |
| 20260507013239 | 68 | 336 | 1.0 | 4.0 | 0.00 | 0.08 | 0.08 | 100 | 1003.3 |
| 20260507012223 | 68 | 340 | 0.0 | 0.0 | 0.00 | 0.08 | 0.08 | 100 | 1003.1 |
| 20260507010051 | 68 | 226 | 0.0 | 0.0 | 0.00 | 0.08 | 0.08 | 99 | 1002.8 |
| 20260507005059 | 68 | 246 | 0.0 | 1.0 | 0.00 | 0.08 | 0.08 | 99 | 1002.8 |
| 20260507004027 | 68 | 250 | 0.0 | 1.0 | 0.00 | 0.08 | 0.08 | 100 | 1002.7 |
| 20260507001919 | 68 | 178 | 0.0 | 0.0 | 0.00 | 0.08 | 0.08 | 98 | 1002.4 |
| 20260507000921 | 68 | 220 | 0.0 | 1.0 | 0.00 | 0.08 | 0.08 | 98 | 1002.4 |
| 20260506235851 | 68 | 219 | 0.0 | 0.0 | 0.00 | 0.08 | 0.08 | 98 | 1002.1 |
| 20260506234825 | 69 | 216 | 0.0 | 0.0 | 0.00 | 0.08 | 0.08 | 98 | 1002.1 |
| 20260506233819 | 69 | 240 | 0.0 | 0.0 | 0.00 | 0.08 | 0.08 | 96 | 1002.0 |
| 20260506232839 | 69 | 244 | 0.0 | 0.0 | 0.00 | 0.08 | 0.08 | 96 | 1002.0 |
| 20260506231821 | 69 | 226 | 0.0 | 0.0 | 0.00 | 0.08 | 0.08 | 95 | 1002.0 |
| 20260506225709 | 69 | 243 | 0.0 | 0.0 | 0.00 | 0.08 | 0.08 | 94 | 1001.8 |
| 20260506224638 | 69 | 198 | 0.0 | 0.0 | 0.00 | 0.08 | 0.08 | 94 | 1001.8 |
| 20260506223615 | 69 | 244 | 0.0 | 2.0 | 0.00 | 0.08 | 0.08 | 93 | 1002.0 |
| 20260506221502 | 69 | 237 | 0.0 | 0.0 | 0.00 | 0.08 | 0.08 | 93 | 1001.9 |
| 20260506220428 | 69 | 250 | 0.0 | 0.0 | 0.00 | 0.08 | 0.08 | 93 | 1001.8 |
| 20260506215435 | 69 | 240 | 0.0 | 0.0 | 0.00 | 0.08 | 0.08 | 93 | 1001.7 |
| 20260506214406 | 70 | 205 | 0.0 | 4.0 | 0.00 | 0.08 | 0.08 | 93 | 1001.7 |
| 20260506211104 | 69 | 230 | 0.0 | 0.0 | 0.00 | 0.08 | 0.08 | 93 | 1001.3 |
| 20260506210115 | 69 | 244 | 0.0 | 0.0 | 0.00 | 0.08 | 0.08 | 93 | 1001.3 |
| 20260506205051 | 69 | 184 | 0.0 | 0.0 | 0.00 | 0.08 | 0.08 | 93 | 1001.3 |
| 20260506202859 | 70 | 176 | 0.0 | 0.0 | 0.00 | 0.08 | 0.08 | 91 | 1001.3 |
| 20260506201902 | 70 | 179 | 0.0 | 4.0 | 0.00 | 0.08 | 0.08 | 92 | 1001.3 |
| 20260506200919 | 70 | 243 | 0.0 | 5.0 | 0.00 | 0.08 | 0.08 | 93 | 1001.3 |
| 20260506195858 | 69 | 210 | 0.0 | 4.0 | 0.00 | 0.08 | 0.08 | 92 | 1001.4 |
| 20260506194845 | 69 | 350 | 0.0 | 5.0 | 0.00 | 0.08 | 0.08 | 93 | 1001.4 |
| 20260506193839 | 69 | 240 | 0.0 | 2.0 | 0.00 | 0.08 | 0.08 | 96 | 1001.4 |
| 20260506192829 | 68 | 270 | 0.0 | 4.0 | 0.00 | 0.08 | 0.08 | 95 | 1001.7 |
| 20260506191801 | 68 | 237 | 0.0 | 5.0 | 0.00 | 0.08 | 0.08 | 96 | 1001.7 |
| 20260506190738 | 68 | 299 | 1.0 | 7.0 | 0.00 | 0.08 | 0.08 | 98 | 1001.9 |
| 20260506185752 | 67 | 329 | 1.0 | 7.0 | 0.00 | 0.08 | 0.08 | 98 | 1002.0 |
| 20260506184804 | 66 | 233 | 1.0 | 6.0 | 0.00 | 0.08 | 0.08 | 100 | 1002.0 |
| 20260506181541 | 66 | 174 | 2.0 | 7.0 | 0.00 | 0.08 | 0.08 | 100 | 1002.2 |
| 20260506180558 | 65 | 247 | 2.0 | 7.0 | 0.00 | 0.08 | 0.08 | 100 | 1002.4 |
| 20260506175557 | 65 | 240 | 2.0 | 7.0 | 0.00 | 0.08 | 0.08 | 100 | 1002.3 |
| 20260506174534 | 65 | 243 | 2.0 | 8.0 | 0.00 | 0.08 | 0.08 | 100 | 1002.3 |
| 20260506172413 | 64 | 198 | 2.0 | 10.0 | 0.00 | 0.08 | 0.08 | 100 | 1002.5 |
| 20260506170242 | 63 | 191 | 1.0 | 6.0 | 0.00 | 0.08 | 0.08 | 100 | 1002.5 |
| 20260506165305 | 62 | 258 | 2.0 | 6.0 | 0.00 | 0.08 | 0.08 | 100 | 1002.8 |
| 20260506163223 | 62 | 256 | 0.0 | 4.0 | 0.00 | 0.08 | 0.08 | 100 | 1002.8 |
| 20260506162207 | 62 | 176 | 2.0 | 7.0 | 0.00 | 0.08 | 0.08 | 100 | 1002.9 |
| 20260506160059 | 61 | 213 | 1.0 | 7.0 | 0.00 | 0.08 | 0.08 | 100 | 1003.0 |
| 20260506155047 | 61 | 200 | 1.0 | 11.0 | 0.00 | 0.08 | 0.08 | 100 | 1003.1 |
| 20260506152906 | 61 | 257 | 0.0 | 4.0 | 0.00 | 0.08 | 0.08 | 100 | 1003.6 |
| 20260506151856 | 61 | 202 | 0.0 | 5.0 | 0.04 | 0.08 | 0.08 | 100 | 1003.6 |
| 20260506150903 | 61 | 174 | 0.0 | 1.0 | 0.04 | 0.08 | 0.08 | 100 | 1003.6 |
| 20260506145858 | 61 | 182 | 0.0 | 9.0 | 0.06 | 0.06 | 0.06 | 100 | 1003.8 |
| 20260506144831 | 61 | 192 | 0.0 | 1.0 | 0.00 | 0.04 | 0.05 | 100 | 1003.8 |
| 20260506143644 | 61 | 232 | 0.0 | 5.0 | 0.00 | 0.04 | 0.05 | 100 | 1003.5 |
| 20260506142706 | 61 | 182 | 0.0 | 6.0 | 0.04 | 0.04 | 0.05 | 100 | 1003.7 |
| 20260506141726 | 61 | 258 | 0.0 | 2.0 | 0.04 | 0.04 | 0.05 | 100 | 1003.7 |
| 20260506140658 | 62 | 179 | 0.0 | 5.0 | 0.05 | 0.04 | 0.04 | 100 | 1003.8 |
| 20260506135707 | 62 | 188 | 0.0 | 6.0 | 0.05 | 0.03 | 0.03 | 100 | 1004.3 |
| 20260506134648 | 62 | 186 | 0.0 | 6.0 | 0.00 | 0.02 | 0.02 | 100 | 1004.3 |
| 20260506132538 | 63 | 223 | 0.0 | 6.0 | 0.00 | 0.01 | 0.01 | 100 | 1003.8 |
| 20260506131542 | 64 | 198 | 1.0 | 6.0 | 0.00 | 0.01 | 0.01 | 100 | 1003.8 |
| 20260506125458 | 65 | 184 | 0.0 | 5.0 | 0.00 | 0.00 | 0.00 | 93 | 1003.5 |
| 20260506124438 | 65 | 178 | 0.0 | 3.0 | 0.00 | 0.00 | 0.00 | 92 | 1003.5 |
| 20260506123445 | 65 | 212 | 0.0 | 6.0 | 0.00 | 0.00 | 0.00 | 90 | 1003.8 |
| 20260506122504 | 65 | 237 | 0.0 | 6.0 | 0.00 | 0.00 | 0.00 | 89 | 1004.0 |
| 20260506120402 | 66 | 175 | 0.0 | 0.0 | 0.00 | 0.00 | 0.00 | 87 | 1003.9 |
| 20260506114247 | 66 | 171 | 0.0 | 5.0 | 0.00 | 0.00 | 0.00 | 86 | 1003.4 |
| 20260506113112 | 66 | 193 | 0.0 | 4.0 | 0.00 | 0.00 | 0.00 | 86 | 1003.4 |
| 20260506112043 | 66 | 215 | 0.0 | 1.0 | 0.00 | 0.00 | 0.00 | 86 | 1003.3 |
| 20260506111051 | 65 | 236 | 0.0 | 5.0 | 0.00 | 0.00 | 0.00 | 86 | 1003.1 |
| 20260506110105 | 65 | 222 | 0.0 | 5.0 | 0.00 | 0.00 | 0.00 | 86 | 1003.1 |
| 20260506105100 | 65 | 178 | 0.0 | 5.0 | 0.00 | 0.00 | 0.00 | 85 | 1003.1 |
| 20260506104055 | 65 | 198 | 0.0 | 7.0 | 0.00 | 0.00 | 0.00 | 86 | 1003.0 |
| 20260506103056 | 65 | 178 | 1.0 | 7.0 | 0.00 | 0.00 | 0.00 | 85 | 1003.0 |
| 20260506100833 | 66 | 176 | 0.0 | 4.0 | 0.00 | 0.00 | 0.00 | 84 | 1002.9 |
| 20260506095815 | 66 | 172 | 0.0 | 2.0 | 0.00 | 0.00 | 0.00 | 83 | 1003.0 |
| 20260506094833 | 66 | 239 | 0.0 | 5.0 | 0.00 | 0.00 | 0.00 | 83 | 1003.0 |
| 20260506093846 | 66 | 176 | 0.0 | 4.0 | 0.00 | 0.00 | 0.00 | 82 | 1003.0 |
| 20260506092704 | 66 | 219 | 0.0 | 5.0 | 0.00 | 0.00 | 0.00 | 81 | 1002.9 |
| 20260506091634 | 67 | 185 | 0.0 | 7.0 | 0.00 | 0.00 | 0.00 | 80 | 1002.9 |
| 20260506090623 | 67 | 200 | 1.0 | 7.0 | 0.00 | 0.00 | 0.00 | 78 | 1003.2 |
| 20260506085630 | 67 | 272 | 1.0 | 9.0 | 0.00 | 0.00 | 0.00 | 77 | 1003.2 |
| 20260506084558 | 68 | 200 | 1.0 | 7.0 | 0.00 | 0.00 | 0.00 | 76 | 1003.2 |
| 20260506083618 | 68 | 213 | 1.0 | 7.0 | 0.00 | 0.00 | 0.00 | 75 | 1003.2 |
| 20260506073022 | 69 | 189 | 0.0 | 6.0 | 0.00 | 0.00 | 0.00 | 69 | 1003.2 |
| 20260506072045 | 70 | 174 | 1.0 | 10.0 | 0.00 | 0.00 | 0.00 | 68 | 1003.2 |
| 20260506071051 | 70 | 193 | 1.0 | 10.0 | 0.00 | 0.00 | 0.00 | 67 | 1003.4 |
| 20260506062039 | 71 | 199 | 0.0 | 7.0 | 0.00 | 0.00 | 0.00 | 63 | 1003.6 |